Terug naar catalogus

STARLINK-1913

ActiefCommunicatieVLEO
NORAD 47179·PAYLOAD·🇺🇸 United States

Gelanceerd Nov 25, 2020 vanaf Cape Canaveral Space Force Station

Loading…

Volgende Passages (komende 24 uur)

TLE

VersSource: CelesTrak SupGP

Epoch: Sep 15, 2026, 01:52 UTC

1 47179C 20088BK  26258.07826389  .00089697  00000+0  20005-2 0  2587
2 47179  53.1529 140.5263 0002020  97.9292  70.4454 15.42943843    16

Volg STARLINK-1913 in realtime met AllMySat

Download on the App Store